When you browse on this site, cookies collect data to enhance your experience and personalize the content and advertising you see.
Visit our Privacy Policy to learn more. By continuing to use the site, you agree to this use of cookies and data.
  • In Hungary
  • List of Countries
  • For 7 days
  • Water Temperature
  • Weather Map
  • News
  • Weather Widgets
  • user-avatar
    Login

    Hourly Weather Dholka

    Today, 18 August, Sunday

    Time Temperature Precipitation Wind Pressure Humidity
    00:00 +29°C° 0.5 mm 6 mps 752 mmHg 83%
    01:00 +29°C° 0.5 mm 5 mps 752 mmHg 84%
    02:00 +29°C° 0.5 mm 5 mps 751 mmHg 85%
    03:00 +28°C° 0 mm 4 mps 751 mmHg 85%
    04:00 +28°C° 0 mm 4 mps 751 mmHg 86%
    05:00 +28°C° 0 mm 3 mps 751 mmHg 86%
    06:00 +29°C° 0 mm 3 mps 752 mmHg 84%
    07:00 +29°C° 0 mm 3 mps 752 mmHg 82%
    08:00 +29°C° 0 mm 3 mps 753 mmHg 80%
    09:00 +30°C° 0 mm 4 mps 753 mmHg 75%
    10:00 +32°C° 0 mm 4 mps 753 mmHg 70%
    11:00 +34°C° 0 mm 4 mps 753 mmHg 65%
    12:00 +34°C° 0.1 mm 4 mps 753 mmHg 61%
    13:00 +35°C° 0.1 mm 4 mps 752 mmHg 57%
    14:00 +36°C° 0.1 mm 4 mps 752 mmHg 53%
    15:00 +36°C° 1.1 mm 4 mps 751 mmHg 57%
    16:00 +35°C° 1.1 mm 3 mps 751 mmHg 60%
    17:00 +34°C° 1.1 mm 3 mps 750 mmHg 63%
    18:00 +33°C° 2.6 mm 3 mps 751 mmHg 68%
    19:00 +31°C° 2.6 mm 3 mps 752 mmHg 73%
    20:00 +30°C° 2.6 mm 2 mps 752 mmHg 78%
    21:00 +30°C° 1.5 mm 3 mps 753 mmHg 79%
    22:00 +30°C° 1.5 mm 3 mps 753 mmHg 79%
    23:00 +30°C° 1.5 mm 3 mps 753 mmHg 79%

    Tomorrow, 19 August, Monday

    Time Temperature Precipitation Wind Pressure Humidity
    00:00 +30°C° 0.3 mm 4 mps 753 mmHg 80%
    01:00 +29°C° 0.3 mm 4 mps 753 mmHg 81%
    02:00 +29°C° 0.3 mm 4 mps 752 mmHg 82%
    03:00 +29°C° 0.1 mm 4 mps 752 mmHg 83%
    04:00 +28°C° 0.1 mm 3 mps 752 mmHg 84%
    05:00 +28°C° 0.1 mm 3 mps 752 mmHg 86%
    06:00 +29°C° 0 mm 3 mps 753 mmHg 82%
    07:00 +29°C° 0 mm 3 mps 753 mmHg 79%
    08:00 +30°C° 0 mm 3 mps 754 mmHg 76%
    09:00 +32°C° 0 mm 4 mps 754 mmHg 70%
    10:00 +33°C° 0 mm 4 mps 754 mmHg 63%
    11:00 +34°C° 0 mm 4 mps 754 mmHg 57%
    12:00 +35°C° 0 mm 4 mps 753 mmHg 56%
    13:00 +35°C° 0 mm 4 mps 753 mmHg 54%
    14:00 +36°C° 0 mm 3 mps 752 mmHg 53%
    15:00 +35°C° 0 mm 3 mps 752 mmHg 55%
    16:00 +35°C° 0 mm 3 mps 752 mmHg 56%
    17:00 +35°C° 0 mm 2 mps 751 mmHg 58%
    18:00 +34°C° 0 mm 2 mps 752 mmHg 60%
    19:00 +34°C° 0 mm 2 mps 752 mmHg 63%
    20:00 +32°C° 0 mm 1 mps 753 mmHg 65%
    21:00 +32°C° 0.1 mm 2 mps 753 mmHg 68%
    22:00 +31°C° 0.1 mm 2 mps 753 mmHg 70%
    23:00 +31°C° 0.1 mm 2 mps 753 mmHg 72%

    Day after tomorrow, 20 August, Tuesday

    Time Temperature Precipitation Wind Pressure Humidity
    00:00 +30°C° 0.1 mm 3 mps 753 mmHg 74%
    01:00 +30°C° 0.1 mm 3 mps 753 mmHg 76%
    02:00 +29°C° 0.1 mm 4 mps 752 mmHg 78%
    03:00 +29°C° 0.1 mm 4 mps 752 mmHg 79%
    04:00 +29°C° 0.1 mm 3 mps 752 mmHg 80%
    05:00 +29°C° 0.1 mm 3 mps 752 mmHg 80%
    06:00 +29°C° 0 mm 3 mps 753 mmHg 78%
    07:00 +29°C° 0 mm 3 mps 753 mmHg 76%
    08:00 +30°C° 0 mm 3 mps 754 mmHg 74%
    09:00 +31°C° 0 mm 3 mps 754 mmHg 68%
    10:00 +33°C° 0 mm 4 mps 754 mmHg 61%
    11:00 +35°C° 0 mm 4 mps 754 mmHg 55%
    12:00 +35°C° 0 mm 4 mps 753 mmHg 52%
    13:00 +36°C° 0 mm 4 mps 752 mmHg 50%
    14:00 +37°C° 0 mm 4 mps 752 mmHg 48%
    15:00 +36°C° 0 mm 4 mps 751 mmHg 49%
    16:00 +36°C° 0 mm 4 mps 751 mmHg 51%
    17:00 +36°C° 0 mm 4 mps 751 mmHg 52%
    18:00 +35°C° 0 mm 3 mps 751 mmHg 56%
    19:00 +34°C° 0 mm 3 mps 751 mmHg 60%
    20:00 +33°C° 0 mm 3 mps 752 mmHg 64%
    21:00 +33°C° 0.1 mm 3 mps 752 mmHg 66%
    22:00 +31°C° 0.1 mm 3 mps 752 mmHg 68%
    23:00 +32°C° 0.1 mm 4 mps 753 mmHg 70%

    21 August, Wednesday

    Time Temperature Precipitation Wind Pressure Humidity
    00:00 +30°C° 0.1 mm 4 mps 752 mmHg 71%
    01:00 +30°C° 0.1 mm 4 mps 752 mmHg 72%
    02:00 +29°C° 0.1 mm 4 mps 752 mmHg 74%
    03:00 +29°C° 0 mm 4 mps 752 mmHg 76%
    04:00 +29°C° 0 mm 3 mps 751 mmHg 78%
    05:00 +28°C° 0 mm 3 mps 751 mmHg 79%
    06:00 +29°C° 0 mm 3 mps 752 mmHg 76%
    07:00 +29°C° 0 mm 3 mps 752 mmHg 73%
    08:00 +30°C° 0 mm 4 mps 752 mmHg 69%
    09:00 +32°C° 0 mm 4 mps 752 mmHg 64%
    10:00 +33°C° 0 mm 4 mps 752 mmHg 59%
    11:00 +35°C° 0 mm 4 mps 752 mmHg 54%
    12:00 +35°C° 0 mm 4 mps 752 mmHg 53%
    13:00 +35°C° 0 mm 4 mps 751 mmHg 52%
    14:00 +36°C° 0 mm 4 mps 751 mmHg 51%
    15:00 +36°C° 0 mm 3 mps 750 mmHg 52%
    16:00 +35°C° 0 mm 3 mps 750 mmHg 53%
    17:00 +35°C° 0 mm 2 mps 750 mmHg 54%
    18:00 +34°C° 0.1 mm 2 mps 750 mmHg 59%
    19:00 +32°C° 0.1 mm 2 mps 750 mmHg 63%
    20:00 +32°C° 0.1 mm 2 mps 751 mmHg 67%
    21:00 +31°C° 0.1 mm 2 mps 751 mmHg 69%
    22:00 +31°C° 0.1 mm 3 mps 751 mmHg 72%
    23:00 +30°C° 0.1 mm 3 mps 751 mmHg 74%

    22 August, Thursday

    Time Temperature Precipitation Wind Pressure Humidity
    00:00 +30°C° 0.1 mm 3 mps 751 mmHg 76%
    01:00 +29°C° 0.1 mm 3 mps 751 mmHg 78%
    02:00 +29°C° 0.1 mm 4 mps 750 mmHg 81%
    03:00 +29°C° 0.1 mm 3 mps 750 mmHg 82%
    04:00 +28°C° 0.1 mm 3 mps 750 mmHg 83%
    05:00 +28°C° 0.1 mm 3 mps 750 mmHg 85%
    06:00 +29°C° 0 mm 3 mps 751 mmHg 81%
    07:00 +29°C° 0 mm 3 mps 751 mmHg 78%
    08:00 +30°C° 0 mm 3 mps 751 mmHg 75%
    09:00 +31°C° 0 mm 3 mps 751 mmHg 68%
    10:00 +33°C° 0 mm 3 mps 751 mmHg 62%
    11:00 +35°C° 0 mm 3 mps 751 mmHg 56%
    12:00 +35°C° 0 mm 3 mps 751 mmHg 54%
    13:00 +36°C° 0 mm 3 mps 750 mmHg 53%
    14:00 +36°C° 0 mm 3 mps 749 mmHg 51%
    15:00 +36°C° 0 mm 3 mps 749 mmHg 51%
    16:00 +36°C° 0 mm 3 mps 749 mmHg 52%
    17:00 +35°C° 0 mm 3 mps 749 mmHg 52%
    18:00 +35°C° 0 mm 3 mps 749 mmHg 56%
    19:00 +34°C° 0 mm 4 mps 750 mmHg 60%
    20:00 +33°C° 0 mm 4 mps 750 mmHg 64%
    21:00 +32°C° 0 mm 4 mps 750 mmHg 66%
    22:00 +30°C° 0 mm 4 mps 751 mmHg 68%
    23:00 +30°C° 0 mm 5 mps 751 mmHg 70%

    23 August, Friday

    Time Temperature Precipitation Wind Pressure Humidity
    00:00 +29°C° 0 mm 4 mps 751 mmHg 73%
    01:00 +29°C° 0 mm 4 mps 751 mmHg 75%
    02:00 +28°C° 0 mm 4 mps 750 mmHg 77%
    03:00 +28°C° 0 mm 4 mps 751 mmHg 77%
    04:00 +28°C° 0 mm 3 mps 751 mmHg 78%
    05:00 +28°C° 0 mm 3 mps 751 mmHg 78%
    06:00 +28°C° 0 mm 3 mps 751 mmHg 74%
    07:00 +29°C° 0 mm 4 mps 752 mmHg 71%
    08:00 +30°C° 0 mm 4 mps 752 mmHg 67%
    09:00 +32°C° 0 mm 4 mps 752 mmHg 63%
    10:00 +33°C° 0 mm 4 mps 752 mmHg 60%
    11:00 +34°C° 0 mm 4 mps 752 mmHg 56%
    12:00 +34°C° 0 mm 4 mps 751 mmHg 54%
    13:00 +35°C° 0 mm 4 mps 751 mmHg 53%
    14:00 +35°C° 0 mm 4 mps 750 mmHg 52%
    15:00 +35°C° 0 mm 4 mps 750 mmHg 53%
    16:00 +34°C° 0 mm 4 mps 750 mmHg 55%
    17:00 +34°C° 0 mm 4 mps 750 mmHg 56%
    18:00 +33°C° 0 mm 4 mps 750 mmHg 59%
    19:00 +33°C° 0 mm 3 mps 751 mmHg 61%
    20:00 +31°C° 0 mm 3 mps 751 mmHg 64%
    21:00 +30°C° 0 mm 3 mps 751 mmHg 67%
    22:00 +30°C° 0 mm 3 mps 752 mmHg 69%
    23:00 +30°C° 0 mm 3 mps 752 mmHg 72%
    Show more